TimePST,TemperatureF,Dew PointF,Humidity,Sea Level PressureIn,VisibilityMPH,Wind Direction,Wind SpeedMPH,Gust SpeedMPH,PrecipitationIn,Events,Conditions,WindDirDegrees,DateUTC
12:53 AM,44.1,39.9,85,30.23,10.0,SSE,4.6,-,N/A,,Clear,160,2013-12-01 08:53:00
1:53 AM,43.0,39.9,89,30.23,9.0,South,3.5,-,N/A,,Clear,180,2013-12-01 09:53:00
2:53 AM,44.1,41.0,89,30.23,10.0,SE,3.5,-,N/A,,Clear,140,2013-12-01 10:53:00
3:53 AM,43.0,39.9,89,30.23,10.0,Calm,Calm,-,N/A,,Clear,0,2013-12-01 11:53:00
4:53 AM,42.1,39.0,89,30.26,9.0,SE,3.5,-,N/A,,Clear,140,2013-12-01 12:53:00
5:53 AM,39.9,37.9,93,30.26,8.0,Calm,Calm,-,N/A,,Clear,0,2013-12-01 13:53:00
6:53 AM,39.0,37.9,96,30.28,8.0,Calm,Calm,-,N/A,,Clear,0,2013-12-01 14:53:00
7:53 AM,42.1,39.9,92,30.29,8.0,Calm,Calm,-,N/A,,Clear,0,2013-12-01 15:53:00
8:53 AM,48.0,41.0,77,30.30,10.0,Calm,Calm,-,N/A,,Clear,0,2013-12-01 16:53:00
9:53 AM,54.0,42.1,64,30.31,10.0,Calm,Calm,-,N/A,,Clear,0,2013-12-01 17:53:00
10:53 AM,59.0,42.1,53,30.30,10.0,Calm,Calm,-,N/A,,Clear,0,2013-12-01 18:53:00
11:53 AM,62.1,44.1,52,30.28,10.0,North,8.1,-,N/A,,Clear,360,2013-12-01 19:53:00
12:53 PM,66.0,43.0,43,30.25,10.0,North,5.8,-,N/A,,Clear,360,2013-12-01 20:53:00
1:53 PM,66.0,41.0,40,30.23,10.0,Calm,Calm,-,N/A,,Clear,0,2013-12-01 21:53:00
2:53 PM,66.9,41.0,39,30.20,10.0,Calm,Calm,-,N/A,,Clear,0,2013-12-01 22:53:00
3:53 PM,66.0,42.1,42,30.20,10.0,North,4.6,-,N/A,,Clear,350,2013-12-01 23:53:00
4:53 PM,62.1,41.0,46,30.18,10.0,Calm,Calm,-,N/A,,Clear,0,2013-12-02 00:53:00
5:53 PM,55.9,43.0,62,30.18,10.0,Calm,Calm,-,N/A,,Clear,0,2013-12-02 01:53:00
6:53 PM,53.1,43.0,69,30.19,10.0,Calm,Calm,-,N/A,,Clear,0,2013-12-02 02:53:00
7:53 PM,50.0,43.0,77,30.19,10.0,SE,3.5,-,N/A,,Clear,140,2013-12-02 03:53:00
8:53 PM,48.9,43.0,80,30.19,10.0,Calm,Calm,-,N/A,,Clear,0,2013-12-02 04:53:00
9:53 PM,50.0,42.1,74,30.20,10.0,SSE,3.5,-,N/A,,Clear,150,2013-12-02 05:53:00
10:53 PM,50.0,41.0,71,30.21,10.0,South,4.6,-,N/A,,Clear,180,2013-12-02 06:53:00
11:53 PM,46.0,41.0,83,30.20,10.0,Calm,Calm,-,N/A,,Clear,0,2013-12-02 07:53:00